This demonstration page uses our WeatherBlox Daily Observations layout. Learn more.

Left ArrowRight Arrow

Hourly Observations for October 7, 2022

Temp ( °F °C ) Dew Point ( °F °C ) Humidity (%) Winds ( mph kmh ) Pressure ( in mb ) Visibility ( mi km ) Precip ( " mm )
12:15 am 00:15 Clear 59 15 52 11 77 77 NNW 7 11 30.07 1018 10 16 0.00 0.00
12:35 am 00:35 Partly Cloudy 59 15 54 12 82 82 NNW 10 17 30.08 1019 10 16 0.00 0.00
12:55 am 00:55 Mostly Cloudy 59 15 55 13 88 88 N 8 13 30.09 1019 10 16 0.00 0.00
1:15 am 01:15 Cloudy 59 15 55 13 88 88 NNW 13 20 30.09 1019 10 16 0.00 0.00
1:35 am 01:35 Partly Cloudy 57 14 54 12 88 88 NNW 12 19 30.11 1020 10 16 0.00 0.00
1:55 am 01:55 Partly Cloudy 55 13 52 11 88 88 NNW 12 19 30.11 1020 10 16 0.00 0.00
2:15 am 02:15 Partly Cloudy 55 13 52 11 88 88 N 9 15 30.12 1020 10 16 0.00 0.00
2:35 am 02:35 Mostly Cloudy 55 13 50 10 82 82 N 13 20 30.12 1020 10 16 0.00 0.00
2:55 am 02:55 Cloudy 55 13 50 10 82 82 N 12 19 30.12 1020 10 16 0.00 0.00
3:15 am 03:15 Mostly Cloudy 54 12 48 9 82 82 N 12 19 30.13 1020 10 16 0.00 0.00
3:35 am 03:35 Cloudy 54 12 48 9 82 82 N 16 26 30.14 1021 10 16 0.00 0.00
3:55 am 03:55 Cloudy 54 12 46 8 76 76 N 13 20 30.16 1021 10 16 0.00 0.00
4:15 am 04:15 Cloudy 52 11 46 8 82 82 N 13 20 30.17 1022 10 16 0.00 0.00
4:35 am 04:35 Cloudy 52 11 46 8 82 82 N 13 20 30.17 1022 10 16 0.00 0.00
4:55 am 04:55 Cloudy 52 11 46 8 82 82 N 12 19 30.18 1022 10 16 0.00 0.00
5:15 am 05:15 Cloudy 52 11 46 8 82 82 N 12 19 30.19 1022 10 16 0.00 0.00
5:35 am 05:35 Cloudy 52 11 48 9 87 87 N 13 20 30.20 1023 10 16 0.00 0.00
5:55 am 05:55 Cloudy 50 10 48 9 93 93 N 12 19 30.20 1023 10 16 0.00 0.00
6:15 am 06:15 Mostly Cloudy 50 10 41 5 71 71 NNW 16 26 30.21 1023 10 16 0.00 0.00
6:35 am 06:35 Clear 48 9 39 4 71 71 N 8 13 30.21 1023 10 16 0.00 0.00
6:55 am 06:55 Mostly Cloudy 46 8 39 4 76 76 NNW 10 17 30.23 1024 10 16 0.00 0.00
7:15 am 07:15 Cloudy 48 9 37 3 66 66 NNW 9 15 30.24 1024 10 16 0.00 0.00
7:35 am 07:35 Cloudy 46 8 36 2 66 66 NNW 9 15 30.24 1024 10 16 0.00 0.00
7:55 am 07:55 Cloudy 46 8 36 2 66 66 NNW 10 17 30.26 1025 10 16 0.00 0.00
8:15 am 08:15 Cloudy 46 8 36 2 66 66 NNW 8 13 30.27 1025 10 16 0.00 0.00
8:35 am 08:35 Mostly Cloudy 45 7 36 2 70 70 NNW 9 15 30.27 1025 10 16 0.00 0.00
8:55 am 08:55 Partly Cloudy 46 8 36 2 66 66 N 12 19 30.27 1025 10 16 0.00 0.00
9:15 am 09:15 Sunny 46 8 36 2 66 66 N 12 19 30.28 1025 10 16 0.00 0.00
9:35 am 09:35 Sunny 48 9 36 2 61 61 N 13 20 30.28 1025 10 16 0.00 0.00
9:55 am 09:55 Sunny 48 9 37 3 66 66 NNW 13 20 30.28 1025 10 16 0.00 0.00
10:15 am 10:15 Sunny 48 9 37 3 66 66 NNW 14 22 30.28 1025 10 16 0.00 0.00
10:35 am 10:35 Sunny 50 10 37 3 62 62 NNW 14 22 30.29 1026 10 16 0.00 0.00
10:55 am 10:55 Sunny 50 10 39 4 66 66 NNW 10 17 30.30 1026 10 16 0.00 0.00
11:15 am 11:15 Sunny 50 10 37 3 62 62 N 13 20 30.30 1026 10 16 0.00 0.00
11:35 am 11:35 Sunny 52 11 37 3 58 58 NNW 12 19 30.31 1026 10 16 0.00 0.00
11:55 am 11:55 Sunny 52 11 37 3 58 58 NW 13 20 30.31 1026 10 16 0.00 0.00
12:15 pm 12:15 Sunny 52 11 37 3 58 58 NNW 15 24 30.32 1027 10 16 0.00 0.00
12:35 pm 12:35 Sunny 52 11 37 3 58 58 N 12 19 30.32 1027 10 16 0.00 0.00
12:55 pm 12:55 Sunny 54 12 39 4 58 58 N 14 22 30.31 1027 10 16 0.00 0.00
1:15 pm 13:15 Sunny 54 12 37 3 54 54 NNW 8 13 30.31 1027 10 16 0.00 0.00
1:35 pm 13:35 Partly Cloudy 55 13 37 3 51 51 NW 9 15 30.31 1026 10 16 0.00 0.00
1:55 pm 13:55 Partly Cloudy 55 13 37 3 51 51 NW 13 20 30.31 1026 10 16 0.00 0.00
2:15 pm 14:15 Partly Cloudy 55 13 37 3 51 51 NNW 12 19 30.30 1026 10 16 0.00 0.00
2:35 pm 14:35 Sunny 55 13 37 3 51 51 N 13 20 30.29 1026 10 16 0.00 0.00
2:55 pm 14:55 Sunny 57 14 37 3 47 47 NNW 15 24 30.29 1026 10 16 0.00 0.00
3:15 pm 15:15 Sunny 57 14 36 2 44 44 NW 15 24 30.29 1026 10 16 0.00 0.00
3:35 pm 15:35 Sunny 57 14 36 2 44 44 NNW 14 22 30.29 1026 10 16 0.00 0.00
3:55 pm 15:55 Sunny 57 14 36 2 44 44 NNW 16 26 30.29 1026 10 16 0.00 0.00
4:15 pm 16:15 Sunny 57 14 36 2 44 44 NNW 13 20 30.29 1026 10 16 0.00 0.00
4:35 pm 16:35 Sunny 57 14 34 1 41 41 NNW 14 22 30.29 1026 10 16 0.00 0.00
4:55 pm 16:55 Sunny 57 14 34 1 41 41 NNW 12 19 30.29 1026 10 16 0.00 0.00
5:15 pm 17:15 Sunny 57 14 34 1 41 41 NNW 13 20 30.29 1026 10 16 0.00 0.00
5:35 pm 17:35 Sunny 57 14 34 1 41 41 NNW 16 26 30.29 1026 10 16 0.00 0.00
5:55 pm 17:55 Sunny 55 13 34 1 44 44 N 13 20 30.29 1026 10 16 0.00 0.00
6:15 pm 18:15 Sunny 55 13 34 1 44 44 NNW 10 17 30.29 1026 10 16 0.00 0.00
6:35 pm 18:35 Sunny 54 12 32 0 44 44 NNW 10 17 30.31 1026 10 16 0.00 0.00
6:55 pm 18:55 Sunny 52 11 32 0 47 47 NNW 8 13 30.31 1026 10 16 0.00 0.00
7:15 pm 19:15 Sunny 50 10 34 1 53 53 N 6 9 30.32 1027 10 16 0.00 0.00
7:35 pm 19:35 Partly Cloudy 50 10 34 1 53 53 NNW 6 9 30.32 1027 10 16 0.00 0.00
7:55 pm 19:55 Partly Cloudy 48 9 34 1 57 57 N 7 11 30.33 1027 10 16 0.00 0.00
8:15 pm 20:15 Clear 46 8 34 1 61 61 N 8 13 30.35 1028 10 16 0.00 0.00
8:35 pm 20:35 Partly Cloudy 46 8 34 1 61 61 N 5 7 30.36 1028 10 16 0.00 0.00
8:55 pm 20:55 Clear 45 7 34 1 66 66 N 6 9 30.36 1028 10 16 0.00 0.00
9:15 pm 21:15 Clear 45 7 34 1 66 66 N 6 9 30.37 1029 10 16 0.00 0.00
9:35 pm 21:35 Partly Cloudy 43 6 34 1 70 70 N 5 7 30.38 1029 10 16 0.00 0.00
9:55 pm 21:55 Cloudy 46 8 36 2 66 66 NNW 8 13 30.38 1029 10 16 0.00 0.00
10:15 pm 22:15 Cloudy 48 9 36 2 61 61 N 7 11 30.37 1029 10 16 0.00 0.00
10:35 pm 22:35 Mostly Cloudy 45 7 36 2 70 70 N 7 11 30.39 1029 10 16 0.00 0.00
10:55 pm 22:55 Clear 45 7 36 2 70 70 N 7 11 30.40 1030 10 16 0.00 0.00
11:15 pm 23:15 Clear 43 6 36 2 75 75 N 7 11 30.41 1030 10 16 0.00 0.00
11:35 pm 23:35 Clear 43 6 36 2 75 75 N 6 9 30.41 1030 10 16 0.00 0.00
11:55 pm 23:55 Clear 41 5 36 2 81 81 N 6 9 30.42 1030 10 16 0.00 0.00

Powered by AerisWeather